Find Starlink 37642

NORAD ID: 69455 Int'l Des: 2026-127 Owner: SPXS Country: US Constellation: starlink operational
LEOCIRCULAR

現在のビュー

3D地球を読み込み中...

About Starlink 37642

Starlink 37642 (NORAD 69455) is a starlink constellation satellite launched Jun 8, 2026 by SPXS of US. It operates in LEO, CIRCULAR orbit with a mass of 575.00 kg.

次回通過

Passes for default location (London). Set your location on the main map for personalized predictions.

高度履歴

Loading altitude history...

軌道要素

1 69455U 26127N 26206.58335648 .00076447 00000-0 13713-2 0 9990
2 69455 53.1599 72.3904 0001071 99.5570 326.7377 15.49264110 5858
Epoch: Jul 25, 2026 • Age: 20 hours

現在のステータス

高度 424.3 km
遠地点 / 近地点 N/A
速度 7.66 km/s
衛星直下点 52.94°N, 69.81°E
打ち上げ日 Jun 8, 2026
運用期間 0.1 years
タイプ internet

技術仕様

分類 Payload
質量 575.00 kg
乾燥質量 530.00 kg
総質量 575.00 kg
長さ 0.30 m
直径 4.10 m
スパン 29.00 m
形状 Box + pan
製造者 SPXS
バスタイプ Starlink V2MO
フェーズステータス In Orbit
所有者/国 SPXS/US

Most Searched